Sitka Rocky Gutierrez current weather conditions

sailwx.info

Air temperature 6.0° C
Visibility: greater than 8.7 NM
Dewpoint 5.0° C

Last reported at 2014-Oct-30 20:53 UTC.
Time now 2014-Oct-30 22:52 UTC

Location: N 57°03' W 135°22'.
View on Google Maps.

See reports from other nearby stations

  
Tides and Currents Weather Stations Pressure Air Temp Water Temp Dewpoint Dewpoint Depression Visibility Wind Speed Wind Dir Waves Ship Positions
date/time (UTC)wind fromknots sea level pressurealtimeterstation pressurevisibilityair tempwater tempwave heightnotes
2014-Oct-30 20:53 8.7 6.0
2014-Oct-30 20:14 100 3 7.8 6.0
2014-Oct-30 19:53 120 3 8.7 5.0
2014-Oct-30 19:30 110 3 8.7 5.0
2014-Oct-30 18:53 8.7 5.0
2014-Oct-30 18:45 8.7 5.0
2014-Oct-30 18:21 8.7 4.0 Light rain.
2014-Oct-30 18:09 1.7 5.0 Light rain. Mist.
2014-Oct-30 17:53 100 4 8.7 5.0
2014-Oct-30 16:53 070 3 8.7 4.0
2014-Oct-30 15:53 100 8 8.7 4.0
2014-Oct-30 15:38 100 10 8.7 4.0
2014-Oct-30 15:00 110 10 8.7 4.0
2014-Oct-30 14:53 120 9 8.7 4.0
2014-Oct-30 13:53 070 12 4.3 4.0 Rain. Mist.
2014-Oct-30 13:05 170 9 5.2 5.0 Light rain. Mist.
2014-Oct-30 12:53 180 13 gusting 20 6.1 5.0 Light rain.
2014-Oct-30 11:53 190 18 gusting 26 5.2 7.0 Light rain. Mist.
2014-Oct-30 11:14 190 17 gusting 23 8.7 8.0 Light rain.
2014-Oct-30 10:53 150 9 8.7 8.0 Light rain.
2014-Oct-30 09:53 130 13 8.7 9.0 Light rain.
2014-Oct-30 08:53 130 16 8.7 9.0
2014-Oct-30 07:53 120 13 8.7 9.0
2014-Oct-30 06:53 130 13 8.7 9.0
2014-Oct-30 05:53 120 14 8.7 9.0
2014-Oct-30 04:53 130 12 8.7 9.0 Light rain.
2014-Oct-30 03:53 120 11 8.7 9.0 Light rain.
2014-Oct-30 02:53 100 10 8.7 9.0
2014-Oct-30 01:53 120 9 8.7 9.0
2014-Oct-30 00:53 120 10 8.7 9.0
2014-Oct-29 23:53 120 9 8.7 9.0
2014-Oct-29 22:53 120 8 8.7 9.0
2014-Oct-29 21:53 130 8 8.7 9.0
2014-Oct-29 20:53 120 10 8.7 9.0
2014-Oct-29 19:53 130 11 8.7 9.0
2014-Oct-29 18:53 110 11 8.7 8.0
2014-Oct-29 17:53 130 13 8.7 8.0
2014-Oct-29 16:53 120 11 8.7 8.0
2014-Oct-29 15:53 120 11 8.7 7.0
2014-Oct-29 14:53 110 12 8.7 7.0
2014-Oct-29 13:53 120 11 8.7 7.0
2014-Oct-29 12:53 090 6 8.7 6.0
2014-Oct-29 11:53 120 8 8.7 7.0 Light rain.
2014-Oct-29 10:53 080 10 8.7 6.0
2014-Oct-29 09:53 080 5 8.7 6.0 Light rain.
2014-Oct-29 08:53 120 4 8.7 6.0
2014-Oct-29 07:53 8.7 6.0
2014-Oct-29 07:03 080 4 8.7 6.0
2014-Oct-29 06:53 070 4 8.7 6.0
2014-Oct-29 06:02 100 4 8.7 6.0
2014-Oct-29 05:53 8.7 6.0
2014-Oct-29 04:53 100 3 8.7 5.0
2014-Oct-29 03:53 8.7 6.0 Light rain.
2014-Oct-29 02:53 8.7 6.0
2014-Oct-29 01:53 8.7 6.0
2014-Oct-29 00:53 8.7 6.0
2014-Oct-28 23:53 8.7 7.0 Light rain.
2014-Oct-28 22:53 340 4 8.7 7.0